パンスターズ彗星

494P/PanSTARRS (2017)

English version
Home page
Updated on November 30, 2024

---------------------------------------------------------------------

・ プロフィール

符号 494P/2017 R2

・ 軌道要素

Epoch 2017 Jan. 7.0 TT = JDT 2457760.5                                          
T 2017 Jan. 1.52094 TT                                  Rudenko                 
q   2.4384649            (2000.0)            P               Q                  
n   0.13331851     Peri.   48.58396     +0.39623362     +0.90987124             
a   3.7949765      Node   245.15160     -0.87764610     +0.33598264             
e   0.3574493      Incl.    7.79145     -0.26969659     +0.24341322             
P   7.39                                                                        
>From 32 observations 2010 Oct. 8-2024 July 9, mean residual 1".4.               

・ 光度変化

        m1 = 15.5 + 5 logΔ + 10.0 log r

---------------------------------------------------------------------

軌道要素はM.P.E.C. 2024-N123に掲載されたものです。
光度グラフはComet for Windowsで作成したものです。

---------------------------------------------------------------------

Copyright(C) Seiichi Yoshida (comet@aerith.net). All rights reserved.